Location: Bakhuizen
(52.8696°N, 5.4575°E)
Time: 21:41:35
(UTC+00:00)

Cosmos 1328 Rocket - Pass Details

Date: 11 May 2021
Orbit: 601 x 627 km, 82.5° (Epoch: 24 June)

Event Time Altitude Azimuth Distance (km) Brightness Sun altitude
Exits shadow 20:44:42 - 192° (SSW) 2,941 6.7 -10.1°
Rises 20:44:48 0° 192° (SSW) 2,902 6.6 -10.1°
Reaches altitude 10° 20:47:01 10° 193° (SSW) 1,997 5.8 -10.3°
Maximum altitude 20:51:28 81° 282° (WNW) 639 3.7 -10.8°
Drops below altitude 10° 20:55:54 10° 9° (N) 2,001 6.8 -11.2°
Sets 20:58:08 0° 11° (N) 2,907 7.7 -11.4°
